User: anonymous
Location: Los Gatos B&B
(42.6926°N, 77.0646°W)
Time: 05:59:44
(UTC-04:00)
Language:

SL-16 R/B - Orbit

View from above orbital plane
View from above orbital plane
View from above satellite
View from above satellite

Ground track
Ground track

The orbit data is extracted from the following two-line orbital elements,

1 28353U 04021B   14106.17535668  .00000199  00000-0  12971-3 0  7294
2 28353 071.0015 346.8001 0004649 179.2528 327.5655 14.14063391508453
Epoch (UTC): 16 April 2014 04:12:30
Eccentricity: 0.0004649
inclination: 71.0015°
perigee height: 842 km
apogee height: 849 km
right ascension of ascending node: 346.8001°
argument of perigee: 179.2528°
revolutions per day: 14.14063391
mean anomaly at epoch: 327.5655°
orbit number at epoch: 50845

The dashed part of the orbit path shows where the satellite is in the earth's shadow,  

DLR